Theta_e
308 309 310 310 310 309 308 311 312 313 312 308 310 314 312 312 312 311 310 308 312 313 313 313 313 312 314 316 316 316 319 322 322 324 327 323 320 318 319 319 326 325 325 326 335
307 307 308 309 309 309 306 306 309 311 312 311 309 313 315 312 311 308 306 304 303 304 307 310 309 311 313 317 315 317 312 314 316 324 326 325 321 322 324 329 331 331 328 330 337
308 307 307 307 308 308 308 308 305 307 311 312 310 312 315 313 305 303 305 308 307 306 308 310 312 311 315 317 314 316 316 314 318 325 325 325 322 320 322 327 327 329 330 332 336
307 308 306 305 306 307 308 308 308 309 309 311 311 311 314 311 307 312 307 310 311 310 312 310 312 311 313 318 315 316 315 316 319 323 324 325 322 323 321 323 322 326 330 332 334
306 306 306 304 305 306 307 307 307 308 306 308 311 311 313 310 307 309 306 306 312 314 313 312 311 310 314 315 315 314 315 314 314 320 320 322 323 322 321 321 324 329 331 332 333
304 305 305 305 303 305 307 307 307 307 307 308 309 311 312 312 310 311 309 305 306 317 317 316 312 310 312 315 315 314 315 315 316 318 318 321 319 324 322 323 330 331 331 331 332
303 303 304 303 302 304 306 305 307 307 307 308 308 311 311 313 312 307 308 309 311 316 318 316 315 312 314 316 313 316 317 316 315 316 318 320 320 323 321 325 330 331 331 330 330
303 303 304 303 303 302 305 306 306 307 307 307 308 310 311 311 312 312 308 309 308 311 318 319 319 315 321 318 319 317 316 318 316 317 317 315 314 313 319 326 329 329 329 332 331
303 303 303 303 304 303 305 306 304 304 306 307 307 309 311 311 310 312 311 308 307 309 312 318 319 318 319 321 321 317 319 317 317 316 318 316 314 312 316 323 327 327 327 330 331
302 302 302 303 303 305 305 304 303 304 305 306 307 308 309 311 309 310 310 309 308 308 316 319 320 319 318 319 323 321 318 317 318 316 317 319 316 313 317 319 321 323 323 325 327
302 301 301 302 304 305 304 303 302 304 304 306 306 308 311 310 310 308 309 307 308 314 316 318 319 318 313 318 317 319 319 319 317 315 318 317 318 318 315 315 315 315 317 317 318
301 301 301 301 303 305 304 303 302 302 303 303 306 308 309 309 310 309 308 310 309 313 314 317 317 314 315 318 319 318 320 319 316 314 316 316 317 315 314 314 314 314 312 312 313
301 301 300 301 303 302 304 303 303 303 305 305 308 308 309 310 312 311 309 308 309 313 315 311 311 313 314 318 320 318 315 314 317 313 312 311 311 311 311 309 309 310 313 313 313
300 301 301 304 303 303 302 303 304 304 308 307 309 308 309 309 309 310 308 310 310 313 312 312 310 312 312 313 317 319 314 314 313 312 316 311 317 311 309 309 308 307 307 309 310
300 299 300 304 304 302 303 303 303 305 305 306 310 309 310 310 311 311 308 309 309 312 310 311 308 310 312 311 313 315 313 313 312 312 314 312 314 312 309 311 310 309 306 304 305
300 298 300 303 302 302 303 303 303 309 306 309 310 312 312 310 308 309 310 308 306 308 306 306 307 307 308 309 310 308 308 306 306 310 313 314 313 313 312 310 310 305 304 303 303
300 299 299 302 301 302 303 300 298 308 306 310 310 312 312 308 306 310 311 311 309 308 304 305 307 306 308 309 309 308 309 305 307 310 316 306 312 314 309 306 306 304 304 302 302
301 299 298 301 303 302 303 295 295 296 307 307 307 312 312 309 307 309 312 313 308 303 304 304 306 307 307 308 309 307 307 305 302 305 302 305 311 309 304 303 303 303 302 303 305
301 300 300 300 302 302 294 289 293 298 305 307 307 313 312 310 310 308 311 311 309 303 305 304 304 306 307 307 308 308 306 302 306 295 305 305 304 304 304 304 303 302 302 304 305
301 299 299 301 302 300 291 295 295 305 304 305 308 307 309 312 312 311 312 309 311 306 303 303 307 307 308 308 308 308 305 306 303 302 304 304 306 304 306 305 302 303 302 304 305
300 294 298 303 302 292 289 285 294 300 303 304 304 303 305 309 312 312 312 310 309 310 308 305 306 308 307 308 307 309 306 305 304 305 306 307 306 301 304 304 302 302 302 304 304
299 290 300 302 298 292 295 290 298 301 302 303 304 305 306 306 310 313 312 310 309 310 312 308 306 305 307 305 305 307 306 304 302 304 304 305 303 300 301 301 301 301 303 304 303
294 297 299 301 300 298 289 298 298 300 302 303 304 305 305 305 306 310 312 309 309 311 312 311 306 306 307 304 304 309 308 306 304 304 307 304 302 300 300 301 302 301 302 302 303
295 293 296 300 296 293 289 290 298 297 301 302 303 304 305 306 305 306 309 309 308 309 311 311 309 306 307 306 306 309 308 306 307 306 305 305 304 303 303 302 302 302 303 302 300
295 296 291 299 300 299 294 293 297 294 299 302 297 302 304 301 306 306 308 309 308 310 310 310 307 310 310 307 306 307 308 307 308 306 307 305 303 301 303 301 302 303 303 303 302
296 296 296 286 289 298 299 291 297 297 297 298 297 301 302 298 303 306 306 305 309 306 310 307 308 310 311 309 308 308 307 307 307 306 307 304 306 301 300 302 302 303 303 302 303
295 296 298 297 293 297 298 298 296 297 298 298 299 300 302 303 303 303 302 302 302 306 307 308 307 307 310 308 308 310 306 306 306 304 306 308 307 304 303 302 300 301 301 301 301
Wind_Speed
11 13 13 14 14 16 17 16 15 16 18 18 19 17 18 19 23 25 14 19 12 12 14 18 18 13 8 3 1 3 3 3 4 6 5 1 4 3 1 6 0 4 6 3 30
10 11 12 13 14 15 16 17 17 17 18 19 18 18 17 17 21 20 31 32 29 22 21 17 6 7 4 3 2 3 3 9 6 3 3 1 3 5 4 4 2 1 3 16 31
10 12 12 12 13 14 17 18 18 19 18 19 18 17 15 12 7 8 7 8 13 21 16 9 3 2 3 3 4 4 5 5 4 4 2 3 2 2 6 4 6 8 8 15 23
12 13 14 14 14 14 16 17 19 20 20 18 19 17 14 3 7 1 5 10 11 13 12 4 2 3 4 6 5 3 8 4 1 3 2 2 3 3 7 5 5 9 16 15 16
14 16 14 16 15 15 15 16 18 19 20 20 18 17 10 5 9 22 20 9 8 7 13 8 7 4 5 4 3 5 5 4 6 5 4 1 4 3 6 4 3 9 13 16 16
14 14 13 15 16 15 15 17 18 20 21 21 18 17 13 19 12 25 24 19 14 9 7 9 6 5 6 5 6 4 9 7 5 5 3 5 3 4 6 4 6 11 12 11 17
16 15 14 15 17 15 15 19 21 23 23 22 20 18 12 18 11 8 7 9 11 12 4 11 16 3 2 4 8 3 3 4 7 5 5 4 6 7 6 5 9 10 10 8 8
15 15 13 15 17 17 17 20 20 23 23 24 20 18 14 14 27 35 12 10 13 11 11 10 9 5 3 6 2 8 1 4 3 9 5 8 8 7 6 9 10 9 8 11 12
15 15 15 16 17 18 18 20 26 25 26 20 16 8 11 7 16 27 30 12 4 10 8 10 3 5 3 3 1 5 6 6 4 9 4 6 6 4 5 8 9 9 8 11 10
15 16 16 16 15 17 19 24 28 25 11 13 15 3 6 4 5 23 24 27 5 2 3 5 5 3 3 6 15 6 5 3 9 4 3 4 7 4 2 5 8 7 7 7 7
14 16 16 15 14 15 16 11 7 3 1 6 7 7 4 2 10 5 20 13 7 3 7 4 5 13 16 5 2 5 5 6 2 2 3 6 6 11 5 1 5 7 7 8 10
14 15 16 16 14 14 12 2 4 8 10 15 17 10 9 5 5 8 12 10 8 9 6 4 16 5 5 6 5 3 5 4 2 2 4 2 7 9 4 4 6 7 7 8 5
14 15 15 15 13 11 6 12 12 19 6 7 11 5 2 5 5 4 11 6 7 10 12 7 5 11 7 5 9 4 5 4 3 2 2 2 5 6 3 4 5 6 6 5 8
14 14 14 12 8 7 9 11 21 16 4 4 6 6 5 4 5 16 19 11 5 14 8 5 4 7 4 7 8 13 6 4 5 4 3 2 5 4 5 6 6 8 7 8 7
14 13 13 7 11 5 8 22 18 4 5 2 4 5 7 8 3 7 22 1 6 6 8 8 5 5 5 3 6 5 6 7 3 4 1 1 1 7 2 5 7 9 9 7 7
12 13 13 7 7 13 19 20 4 3 5 4 2 4 5 4 3 2 8 2 2 5 3 4 1 3 8 2 7 8 7 8 5 3 1 6 5 4 4 5 3 1 2 3 6
12 12 12 9 4 14 20 3 4 1 2 7 6 4 2 3 1 4 8 5 6 5 3 3 1 3 2 5 3 2 7 3 3 1 5 2 4 8 4 5 1 2 4 5 5
12 12 11 11 9 13 11 5 5 4 2 3 7 7 3 5 4 4 10 7 8 4 4 6 2 6 3 4 7 4 6 5 7 4 4 1 6 6 2 7 3 7 5 5 5
13 8 8 6 4 6 4 4 6 3 3 7 10 2 1 2 1 0 6 6 6 6 6 4 4 2 1 2 5 5 4 4 6 2 3 3 6 7 2 5 6 6 6 5 5
6 5 6 5 2 2 4 4 3 2 2 1 6 4 7 5 1 1 7 2 3 4 2 5 4 2 1 1 3 4 7 3 3 4 2 3 4 4 3 5 4 6 6 5 5
2 3 4 2 1 4 2 6 4 5 4 2 2 3 3 5 5 1 6 4 6 2 1 3 3 2 3 3 6 2 1 4 3 3 4 3 5 5 4 6 7 5 5 6 6
2 2 2 4 2 1 1 3 6 4 3 3 2 1 3 5 5 4 2 2 9 3 1 3 4 3 3 3 2 1 5 4 4 4 0 1 4 3 4 6 7 6 5 4 4
2 1 3 4 2 3 5 2 3 3 3 3 2 2 2 2 4 6 5 4 11 10 7 2 0 3 4 5 3 3 4 3 4 2 4 5 4 6 5 6 4 7 5 4 3
2 1 2 2 2 5 2 4 3 5 4 2 3 2 0 1 2 3 5 3 5 7 12 5 2 4 6 4 6 5 6 5 5 3 3 4 4 2 2 5 5 5 4 2 1
2 4 4 3 4 5 4 4 4 4 3 2 4 4 2 1 1 2 3 5 4 6 2 5 4 0 1 5 4 3 7 8 8 5 6 4 7 6 7 7 5 2 1 3 4
5 4 1 2 2 9 9 5 10 3 4 4 2 1 4 4 4 3 1 4 4 5 3 3 2 3 1 3 5 2 5 9 5 6 2 5 5 6 6 2 4 4 3 4 5
6 4 3 6 5 7 7 8 8 7 6 5 7 2 1 5 4 2 1 4 2 2 3 1 3 2 4 0 5 3 10 7 5 5 7 8 7 7 6 6 6 6 6 7 7
Wind_Direction
340 332 330 327 327 321 314 317 313 305 302 301 303 302 300 299 299 301 272 261 261 286 294 301 304 317 312 277 241 140 87 212 236 170 239 305 219 152 151 124 220 168 151 232 158
331 332 323 321 322 322 319 314 314 307 302 299 298 299 296 299 305 288 283 281 273 265 273 285 306 333 301 252 265 155 174 208 206 211 257 266 192 180 138 138 213 186 34 144 150
321 318 324 319 317 319 317 314 313 313 306 299 298 294 291 302 309 258 303 313 273 241 244 258 251 277 243 194 212 189 217 202 224 204 228 282 217 201 141 224 210 190 153 151 155
319 313 319 327 323 319 316 313 310 309 311 300 298 292 286 226 258 177 22 350 345 198 212 240 227 228 220 208 201 222 247 233 262 202 200 240 312 246 183 229 220 178 161 152 165
332 321 316 324 322 317 312 310 307 305 303 301 294 289 262 219 232 258 283 311 344 212 217 203 201 190 206 214 212 216 252 199 225 223 233 311 249 234 255 260 87 129 160 168 174
332 326 315 317 320 317 314 310 306 305 304 299 294 285 248 248 267 265 275 282 261 216 218 208 214 224 266 228 187 228 222 235 200 220 250 201 261 146 255 137 136 154 175 180 180
332 323 312 319 323 316 313 312 302 302 299 294 294 285 247 249 255 291 268 252 241 232 225 225 239 277 253 287 231 261 271 242 231 199 229 165 273 222 223 149 173 189 183 183 190
333 324 319 320 323 320 315 314 305 298 289 292 292 287 261 255 252 256 259 258 263 245 237 251 250 223 215 308 238 172 174 205 247 164 227 149 258 248 214 165 199 201 200 189 199
333 326 324 319 319 320 319 314 308 296 285 282 286 225 264 265 226 237 239 222 270 243 246 257 194 203 205 228 215 216 198 200 298 199 136 177 251 252 192 195 204 200 205 211 200
335 332 332 322 318 321 316 316 318 298 274 258 241 280 232 230 232 230 235 219 216 277 264 215 200 201 195 175 207 167 161 175 204 200 197 198 248 281 41 200 230 220 196 217 230
329 334 333 330 319 323 322 339 6 341 334 255 239 225 111 147 286 250 214 178 173 191 194 237 203 213 207 212 12 159 182 209 173 145 151 229 223 244 236 287 267 244 227 216 231
328 330 331 329 317 318 303 229 204 281 295 253 250 244 248 257 268 232 218 166 166 197 147 212 230 214 195 209 218 200 186 209 339 117 157 209 251 261 228 240 209 226 230 230 225
332 331 331 328 316 314 269 268 268 312 255 287 210 218 186 152 231 229 202 166 159 166 189 190 233 176 183 180 195 210 174 163 175 124 62 123 288 256 250 216 236 243 232 227 225
333 333 333 327 315 315 287 325 312 311 256 233 201 225 183 160 269 221 205 188 171 191 145 234 244 175 172 206 173 220 182 148 133 123 203 52 275 266 243 248 245 246 235 243 228
331 334 333 319 300 292 308 321 325 290 295 175 170 174 161 170 351 207 177 338 176 155 144 216 180 144 203 210 161 211 150 156 124 104 108 171 92 270 232 253 249 242 235 236 253
327 338 330 318 273 294 316 323 326 220 258 310 296 196 155 158 339 197 148 292 221 123 76 181 253 176 194 142 163 159 89 48 56 82 309 201 163 259 223 219 274 82 238 168 117
323 326 318 287 257 313 322 350 26 13 339 337 346 241 153 149 200 240 158 175 173 133 156 10 203 281 166 90 54 118 106 36 23 17 223 328 178 247 262 255 167 189 132 112 107
323 322 308 278 286 306 330 40 57 258 315 308 325 267 197 156 204 218 156 179 235 94 125 144 214 189 176 179 171 171 154 152 175 187 191 129 219 246 225 276 111 99 101 87 90
323 318 293 299 295 310 61 39 202 243 284 334 316 287 216 170 169 166 193 183 191 184 141 129 214 21 342 137 147 188 188 153 105 26 82 213 282 307 141 64 99 106 89 85 83
345 322 290 302 241 33 72 258 240 246 295 274 5 346 6 333 356 255 148 180 251 186 192 203 130 12 307 116 34 143 155 79 5 120 221 277 288 241 195 152 136 127 123 103 89
345 24 340 164 175 50 157 235 284 270 262 300 293 314 351 350 316 70 160 173 220 339 16 123 95 319 120 211 170 101 129 61 119 140 159 137 253 226 215 186 161 149 145 143 142
120 12 356 170 51 76 147 220 309 298 297 299 296 295 30 329 324 346 177 222 173 281 355 5 110 133 193 265 244 167 171 144 134 222 197 157 262 337 251 154 142 154 154 148 134
155 238 350 167 206 224 297 262 283 305 310 326 306 24 44 346 353 359 334 344 189 175 185 224 69 91 17 355 351 186 168 130 108 81 194 136 251 353 53 97 112 140 162 166 168
107 325 312 196 117 147 159 257 248 280 258 288 303 328 91 283 207 308 332 349 308 219 155 147 256 182 184 179 141 174 164 161 135 130 170 215 177 262 209 119 111 123 140 161 26
121 238 185 193 203 183 177 180 205 286 286 267 336 247 234 353 294 330 322 310 358 16 93 181 163 168 70 99 108 135 166 175 193 166 170 195 184 217 201 169 158 144 305 309 317
170 175 177 199 198 183 193 229 200 224 155 274 205 272 198 193 214 227 160 8 26 346 300 351 158 116 108 27 43 69 167 185 183 188 231 158 246 189 203 155 136 166 226 188 187
185 190 162 192 169 175 206 213 217 163 245 221 208 223 350 245 212 222 158 164 207 259 333 16 141 108 158 118 86 308 218 192 177 192 169 187 220 168 204 180 199 222 208 216 231